Погода в Батраке

Россия / Пензенская область     53°10′44″N   43°56′51″E
темп.,
°C
ветер,
м/с
пор.,
м/с
влажн.,
%
обл.,
%
осадки,
мм/ч
давл.,
гПа
погр.,
м
4 декабря, сб
сб400:00+4ююз81892100 0.0 1008598
03:00+4ю101982100 0.0 1006658
06:00+4ююз101987100 0.9 1004903
09:000з41098100 2.6 1008495
12:00+1з5884100 0.3 1009606
15:000зюз5107876 0.3 1011633
18:00−1зюз4984100 0.0 1012559
21:00−2зсз6875100 0.0 1014781
5 декабря, вс
вс500:00−3з38765 0.0 1015594
03:00−3з37825 0.0 1016423
06:00−3з26845 0.0 1017311
09:00−3з238422 0.0 1018176
12:00−2зсз1273100 0.0 1018276
15:00−2з1175100 0.0 101920
18:00−2юв0077100 0.0 102011
21:00−2вюв2277100 0.0 102037
6 декабря, пн
пн600:00−3юв2279100 0.0 102142
03:00−3вюв2378100 0.0 102175
06:00−3вюв3678100 0.0 1021192
09:00−2вюв3874100 0.0 1023305
12:00−1вюв4868100 0.0 1022404
15:00−1вюв496985 0.0 1023399
18:00−2вюв4107699 0.0 1024323
21:00−3вюв51178100 0.0 1024413
7 декабря, вт
вт700:00−3юв51177100 0.0 1024503
03:00−2юв61284100 0.0 1024493
06:00−2юв71389100 0.1 1022462
09:00−2юв71495100 1.1 1022464
12:00−1юв81694100 1.3 1021465
15:00+1ююв81695100 4.0 1019476
18:00+2ю81697100 0.3 1018411
21:00+2ю71598100 0.4 1019417
8 декабря, ср
ср800:00+3ю71798100 0.0 1018457
03:00+3ю71991100 0.0 1018438
06:00+3ю61889100 0.0 1018408
09:00+2ююв61790100 0.0 1019392
12:00+3ююв61588100 0.0 1018415
15:00+2юв61386100 0.0 1017335
18:00+1юв51288100 0.0 1018301
21:000юв51290100 0.0 1018307